Tracking 35331 objects as of 14-Sep-2026
HD Live streaming from Space Station
objects crossing your sky now

STARLINK-38122

Track STARLINK-38122 now!
10-day predictions
STARLINK-38122 is classified as:


NORAD ID: 100005
Int'l Code: 2026-160E
Launch date: July 14, 2026
Source: United States (US)
Launch site: AIR FORCE WESTERN TEST RANGE (AFWTR)
Your satellite tracking list
Your tracking list is empty




NASA's NSSDC Master Catalog

Two Line Element Set (TLE):
1 A0005U 26160E   26257.29501251  .00135963  00000-0  80285-3 0  9990
2 A0005  70.0014 212.5320 0003078 268.7759  91.3088 15.77589454 11013
Source of the keplerian elements: AFSPC